Weather History for Gonzales, LA

Change the Weather History Date:

Wednesday, November 21, 2012

  Actual Average (KBTR) Record (KBTR)
Temperature  
Mean Temperature 60 °F 59 °F  
Max Temperature 76 °F 70 °F 87 °F (1942)
Min Temperature 44 °F 47 °F 25 °F (1937)
Degree Days  
Heating Degree Days 5 8  
Month to date heating degree days 112  
Since 1 July heating degree days 158  
Cooling Degree Days 0 1  
Month to date cooling degree days 40  
Year to date cooling degree days 2790  
Growing Degree Days 10 (Base 50)    
Moisture  
Dew Point 49 °F    
Average Humidity 76    
Maximum Humidity 99    
Minimum Humidity 39    
Precipitation  
Precipitation 0.00 in 0.13 in 2.43 in (1948)
Month to date precipitation 2.85  
Year to date precipitation 53.80  
Snow  
Snow - - - ()
Month to date snowfall  
Since 1 July snowfall  
Since 1 September snowfall  
Snow Depth -    
Sea Level Pressure  
Sea Level Pressure 30.18 in    
Wind  
Wind Speed 1 mph ()    
Max Wind Speed 9 mph    
Max Gust Speed 18 mph    
Visibility 9.8 miles    
Events      
T = Trace of Precipitation, MM = Missing Value Source: Averaged Metar Reports

Daily Weather History Graph

Daily Weather History Graph

Search for Another Location

Airport:

Trip Planner

Search our weather history database for the weather conditions in past years. The results will help you decide how hot, cold, wet, or windy it might be!

Date:

Astronomy

Nov. 21, 2012 Rise Set
Actual Time 6:34 AM CST 5:04 PM CST
Civil Twilight 6:08 AM CST 5:30 PM CST
Nautical Twilight 5:39 AM CST 5:59 PM CST
Astronomical Twilight 5:10 AM CST 6:28 PM CST
Moon 12:57 PM CST (11/21) 12:20 AM CST (11/21)
Length of Visible Light 11h 21m
Length of Day
10h 30m
First Quarter, 62% of the Moon is Illuminated
Nov 21
First Quarter
Nov 28
Full
Dec 6
Last Quarter
Dec 13
New
Dec 19
First Quarter

Hourly Weather History & Observations

Time (CST) Temp. Dew Point Humidity Pressure Visibility Wind Dir Wind Speed Gust Speed Precip Events Conditions
12:15 AM 48.4 °F 46.6 °F 93% 30.17 in 10.0 mi Calm Calm - N/A   Clear
12:35 AM 48.9 °F 46.8 °F 92% 30.17 in 10.0 mi Calm Calm - N/A   Clear
12:55 AM 47.7 °F 46.0 °F 94% 30.17 in 10.0 mi Calm Calm - N/A   Clear
1:15 AM 47.3 °F 46.6 °F 97% 30.17 in 10.0 mi Calm Calm - N/A   Clear
1:35 AM 47.3 °F 46.6 °F 97% 30.17 in 10.0 mi Calm Calm - N/A   Clear
1:55 AM 47.3 °F 46.2 °F 96% 30.17 in 10.0 mi Calm Calm - N/A   Clear
2:15 AM 47.5 °F 45.9 °F 94% 30.16 in 10.0 mi Calm Calm - N/A   Clear
2:35 AM 47.3 °F 45.5 °F 93% 30.16 in 10.0 mi Calm Calm - N/A   Clear
2:55 AM 46.4 °F 45.1 °F 95% 30.17 in 10.0 mi Calm Calm - N/A   Clear
3:15 AM 46.4 °F 44.6 °F 93% 30.17 in 10.0 mi Calm Calm - N/A   Clear
3:35 AM 46.4 °F 45.3 °F 96% 30.17 in 10.0 mi Calm Calm - N/A   Clear
3:55 AM 46.4 °F 45.5 °F 97% 30.17 in 10.0 mi Calm Calm - N/A   Clear
4:15 AM 45.9 °F 45.0 °F 97% 30.17 in 10.0 mi Calm Calm - N/A   Clear
4:35 AM 45.3 °F 44.6 °F 97% 30.17 in 10.0 mi Calm Calm - N/A   Clear
4:55 AM 45.9 °F 45.1 °F 97% 30.18 in 10.0 mi Calm Calm - N/A   Clear
5:15 AM 45.5 °F 44.8 °F 97% 30.18 in 10.0 mi Calm Calm - N/A   Clear
5:35 AM 44.6 °F 44.1 °F 98% 30.18 in 7.0 mi Calm Calm - N/A   Clear
5:55 AM 44.8 °F 44.6 °F 99% 30.19 in 7.0 mi Calm Calm - N/A   Clear
6:15 AM 44.8 °F 44.6 °F 99% 30.19 in 7.0 mi Calm Calm - N/A   Clear
6:35 AM 45.0 °F 44.4 °F 98% 30.20 in 7.0 mi Calm Calm - N/A   Clear
6:55 AM 44.8 °F 44.1 °F 97% 30.21 in 10.0 mi Calm Calm - N/A   Clear
7:15 AM 45.7 °F 44.6 °F 96% 30.21 in 10.0 mi Calm Calm - N/A   Clear
7:35 AM 47.5 °F 45.9 °F 94% 30.22 in 10.0 mi Calm Calm - N/A   Clear
7:55 AM 50.7 °F 47.7 °F 89% 30.22 in 10.0 mi Calm Calm - N/A   Clear
8:15 AM 54.9 °F 49.1 °F 81% 30.22 in 10.0 mi Calm Calm - N/A   Clear
8:35 AM 59.2 °F 52.2 °F 78% 30.23 in 10.0 mi Calm Calm - N/A   Clear
8:55 AM 64.4 °F 51.1 °F 62% 30.23 in 10.0 mi NNW 4.6 mph - N/A   Clear
9:15 AM 64.8 °F 51.4 °F 62% 30.24 in 10.0 mi NNW 4.6 mph - N/A   Clear
9:35 AM 66.2 °F 51.8 °F 60% 30.24 in 10.0 mi NNW 6.9 mph - N/A   Clear
9:55 AM 67.6 °F 51.4 °F 56% 30.23 in 10.0 mi NW 6.9 mph - N/A   Clear
10:15 AM 69.3 °F 51.6 °F 53% 30.23 in 10.0 mi NNW 8.1 mph - N/A   Clear
10:35 AM 70.2 °F 52.5 °F 53% 30.22 in 10.0 mi NNW 3.5 mph - N/A   Clear
10:55 AM 71.8 °F 53.6 °F 53% 30.21 in 10.0 mi NW 6.9 mph - N/A   Clear
11:15 AM 72.9 °F 55.0 °F 53% 30.20 in 10.0 mi NW 8.1 mph - N/A   Clear
11:35 AM 73.6 °F 55.2 °F 53% 30.19 in 10.0 mi NNW 6.9 mph - N/A   Clear
11:55 AM 74.7 °F 52.9 °F 46% 30.18 in 10.0 mi North 9.2 mph - N/A   Scattered Clouds
12:15 PM 74.5 °F 53.2 °F 47% 30.18 in 10.0 mi North 9.2 mph 18.4 mph N/A   Scattered Clouds
12:35 PM 75.9 °F 53.1 °F 45% 30.17 in 10.0 mi NNW 8.1 mph - N/A   Mostly Cloudy
12:55 PM 74.5 °F 52.0 °F 45% 30.16 in 10.0 mi NNW 8.1 mph - N/A   Scattered Clouds
1:15 PM 75.6 °F 51.6 °F 43% 30.15 in 10.0 mi North 5.8 mph - N/A   Scattered Clouds
1:35 PM 75.6 °F 52.7 °F 45% 30.14 in 10.0 mi North 6.9 mph - N/A   Scattered Clouds
1:55 PM 75.2 °F 53.6 °F 47% 30.14 in 10.0 mi WNW 5.8 mph - N/A   Clear
2:15 PM 76.1 °F 54.3 °F 47% 30.13 in 10.0 mi WNW 8.1 mph - N/A   Mostly Cloudy
2:35 PM 76.6 °F 52.5 °F 43% 30.13 in 10.0 mi WNW 8.1 mph - N/A   Mostly Cloudy
2:55 PM 74.3 °F 51.4 °F 45% 30.13 in 10.0 mi NNW 4.6 mph - N/A   Scattered Clouds
3:15 PM 75.4 °F 50.9 °F 42% 30.13 in 10.0 mi North 5.8 mph - N/A   Mostly Cloudy
3:35 PM 74.5 °F 50.5 °F 43% 30.13 in 10.0 mi North 5.8 mph - N/A   Scattered Clouds
3:55 PM 75.2 °F 49.5 °F 40% 30.13 in 10.0 mi North 4.6 mph - N/A   Scattered Clouds
4:15 PM 74.5 °F 48.4 °F 40% 30.13 in 10.0 mi Calm Calm - N/A   Clear
4:35 PM 73.8 °F 47.3 °F 39% 30.14 in 10.0 mi Calm Calm - N/A   Clear
4:55 PM 68.7 °F 50.9 °F 53% 30.14 in 10.0 mi Calm Calm - N/A   Clear
5:15 PM 65.5 °F 53.6 °F 65% 30.14 in 10.0 mi Calm Calm - N/A   Clear
5:35 PM 63.3 °F 52.7 °F 68% 30.15 in 10.0 mi Calm Calm - N/A   Clear
5:55 PM 61.3 °F 52.3 °F 72% 30.15 in 10.0 mi Calm Calm - N/A   Clear
6:15 PM 59.7 °F 50.9 °F 73% 30.16 in 10.0 mi Calm Calm - N/A   Clear
6:35 PM 58.6 °F 52.5 °F 80% 30.16 in 10.0 mi Calm Calm - N/A   Clear
6:55 PM 57.4 °F 50.9 °F 79% 30.17 in 10.0 mi Calm Calm - N/A   Clear
7:15 PM 56.3 °F 50.7 °F 82% 30.17 in 10.0 mi Calm Calm - N/A   Clear
7:35 PM 55.6 °F 51.1 °F 85% 30.18 in 10.0 mi Calm Calm - N/A   Clear
7:55 PM 54.7 °F 50.5 °F 86% 30.18 in 10.0 mi Calm Calm - N/A   Clear
8:15 PM 54.0 °F 50.5 °F 88% 30.18 in 10.0 mi Calm Calm - N/A   Clear
8:35 PM 53.6 °F 49.6 °F 86% 30.19 in 10.0 mi Calm Calm - N/A   Clear
8:55 PM 53.4 °F 49.6 °F 87% 30.19 in 10.0 mi Calm Calm - N/A   Clear
9:15 PM 52.3 °F 49.6 °F 91% 30.20 in 10.0 mi Calm Calm - N/A   Clear
9:35 PM 52.0 °F 49.8 °F 92% 30.20 in 10.0 mi Calm Calm - N/A   Clear
9:55 PM 51.4 °F 49.3 °F 92% 30.20 in 10.0 mi Calm Calm - N/A   Clear
10:15 PM 50.7 °F 48.0 °F 90% 30.19 in 10.0 mi Calm Calm - N/A   Clear
10:35 PM 50.7 °F 48.4 °F 92% 30.20 in 10.0 mi Calm Calm - N/A   Clear
10:55 PM 50.4 °F 48.0 °F 92% 30.19 in 10.0 mi Calm Calm - N/A   Clear
11:15 PM 50.0 °F 47.8 °F 92% 30.19 in 10.0 mi Calm Calm - N/A   Clear
11:35 PM 49.6 °F 47.5 °F 92% 30.19 in 10.0 mi Calm Calm - N/A   Clear
11:55 PM 49.6 °F 47.1 °F 91% 30.19 in 10.0 mi Calm Calm - N/A   Clear